Showing default

FLOCK 4G 3, 62639

Orbit data source: Space-Track

FLOCK 4G 3, 62639 is a payload satellite owned by Planet (US) in SSO that was launched on Tue, 14 Jan 2025 UTC via an FALCON 9 launch vehicle from the Air Force Western Test Range (AFWTR). Payload-class satellites include a variety of spacecraft equipped with specific instruments for various scientific and technological missions. These include communications satellites like Starlink; space stations such as the ISS; scientific satellites like the Hubble; Earth observation satellites from companies like Planet Labs, Umbra, and HawkEye 360; GPS; miniature CubeSats for education and research; and military/defense satellites.

Loading next visibility...
Identifier
62639, 2025-009AG
Orbit
SSO
Country
Flag of USUS
Related business
Manufacturer
Planet
Mission
Operational Commercial Imaging
Bus & Motor
CUBESAT 3U, Unknown motor
Mass
5.7 kg wet, 5.7 kg dry
Launch date (UTC)
2025-01-14 (1 year ago)
Launch vehicle
FALCON 9
Launch site
Air Force Western Test Range (AFWTR)
Object type
Payload
Rocket body
Debris
Shape & HBR
Box + 2 Pan, 1.0 m
Radar Cross Section
0.072 m², Medium (>0.1 m² and < 1m²)

Expand to show TLE details & history
Last TLE update: 8 hours ago

TLE from 8 hours ago
0 FLOCK 4G 3
1 62639U 25009AG  26124.14376449  .00010008  00000-0  36369-3 0  9994
2 62639  97.4025 206.3835 0004455 101.1221 259.0520 15.28465347 72173
Epoch: 2026-05-04T03:27Z
TLE epoch observation values (Epoch: 2026-05-04T03:27:01.251Z)
Latitude
-0.00003°
Longitude
-67.40889°
Altitude
484.083 km
Speed
7.623 km/s
True Right ascension
13h 45m 32s
True Declination
0° 00' 00"
Sunlit
Object was in full shadow at epoch
Visualization orbit readout
Latitude
Unknown
Longitude
Unknown
Altitude
Unknown
Speed
Unknown
Apparent Right ascension
Unknown
Apparent Declination
Unknown
Sunlit
N/A
Visualization observer readout
Local Sidereal Time
18:59:24
Azimuth
Unknown
Elevation
Unknown
Doppler factor
Unknown
Orbital elements
Apogee altitude
480.408 km
Perigee altitude
474.3 km
Semi-major axis
6,855.491 km
Eccentricity
0.00045
Inclination
97.4025°
RAAN
206.3835°
Arg. of periapsis
101.1221°
True anomaly
259.00188°
Mean anomaly
259.052°
Eccentric anomaly
259.02694°
Mean motion
3.82371 °/min
Orbital period
94.15 mins
BSTAR
0.00036369
Loading maneuver chart data...
Computing Atmospheric mass density...
Loading historical data...
Loading historical data...
Loading historical data...
Loading historical data...
Loading historical data...
Loading historical data...
Loading historical data...

Documentation

Showing up to 5 results
|